Back to catalog

USA 619

AliveMilitaryLEO
NORAD 100178·PAYLOAD·🇺🇸 United States

Launched Jul 30, 2026 from Cape Canaveral Space Force Station

Loading…

Next Passes (next 24 hours)

TLE

StaleSource: Mike McCants

Epoch: Sep 6, 2026, 00:49 UTC

1 A0178U 26174A   26249.03462929 0.00000000  00000-0  00000-0 0    07
2 A0178  63.4282 224.1992 0127875 180.8694 179.0177 13.40643320    06

Track USA 619 in real time with AllMySat

Download on the App Store